Location: Unspecified
(56.5167°N, 0.0000°E)
Time: 09:58:09
(UTC+02:00)

Resurs 1-4 Rocket - Pass Details

Date: 05 August 2020
Orbit: 799 x 815 km, 98.6° (Epoch: 23 September)

Event Time Altitude Azimuth Distance (km) Brightness Sun altitude
Rises 04:17:11 0° 15° (NNE) 3,343 6.9 -11.6°
Reaches altitude 10° 04:19:32 10° 14° (NNE) 2,405 5.9 -11.5°
Maximum altitude 04:24:50 72° 291° (WNW) 852 2.2 -11.1°
Enters shadow 04:29:22 14° 209° (SSW) 2,106 3.6 -10.7°
